Windom, MN

10:24 AM CDT on September 02, 2014 (GMT -0500)
Windom Municipal | Change Station
CLOSE
Current Station
Airport
Location: Windom,
Elevation: 1411 ft
Nearby Weather Stations

Elev 1411 ft 43.91 °N, 95.11 °W | Updated 11 minutes ago

Scattered Clouds
Scattered Clouds
66 °F
Feels Like 66 °F
N
6
Wind Variable Wind from WSW

Today
High -- | Low -- °F
--% Chance of Precip.
Yesterday
High -- | Low -- °F
Precip. -- in
6:45 AM 7:54 PM
First Quarter, 52% visible
Pressure 29.94 in
Visibility 10.0 miles
Clouds Scattered Clouds 6000 ft
Dew Point 57 °F
Humidity 73%
Rainfall 0.12 in
Snow Depth Not available.
UV 3 out of 12
Pollen 8.90 out of 12
Air Quality Not available.
Flu Activity Not available.
METAR KMWM 021513Z AUTO 24005KT 10SM SCT060 19/14 A2994 RMK AO2

More Conditions Fewer Conditions

Pressure 29.94 in
Visibility 10.0 miles
Clouds Scattered Clouds 6000 ft
Dew Point 57 °F
Humidity 73%
Rainfall 0.12 in
Snow Depth Not available.
UV 3 out of 12
Pollen 8.90 out of 12
Air Quality Not available.
Flu Activity Not available.
METAR KMWM 021513Z AUTO 24005KT 10SM SCT060 19/14 A2994 RMK AO2

More Conditions Fewer Conditions

10-Day Weather Forecast

Almanac

Astronomy

Sep. 02, 2014 Rise Set
Actual Time 6:45 AM CDT 7:54 PM CDT
Civil Twilight 6:15 AM CDT 8:24 PM CDT
Nautical Twilight 5:40 AM CDT 8:59 PM CDT
Astronomical Twilight 5:02 AM CDT 9:36 PM CDT
Moon 2:44 PM CDT No Moon Set
Length of Visible Light 14h 08m
Length of Day
13h 09m
Tomorrow will be 2m 55s shorter.
First Quarter, 52% of the Moon is Illuminated
Today
First Quarter
Sep 8
Full
Sep 15
Last Quarter
Sep 24
New
Oct 1
First Quarter

Today's Extremes

State Highs State Lows

Community

WunderPhotos

Upload Photos

1,749,690 photos uploaded!

Nearby

Snow Depth

Station Depth Elevation
No new snow has been reported.

Earthquake Activity

City Distance Mag. Time & Date
No recent earthquake activity has been reported nearby.
Minimum magnitude displayed is 2.5.

Coastal Water Temperatures

Place Temperature
No Stations Reporting

Nearby Weather Stations